Year,Month,Day,Hour,Minute,Value (Times are PST for insolation in W/m^2)
2013,09,04,00,00,0.00
2013,09,04,00,01,0.00
2013,09,04,00,02,0.00
2013,09,04,00,03,0.00
2013,09,04,00,04,0.00
2013,09,04,00,05,0.00
2013,09,04,00,06,0.00
2013,09,04,00,07,0.00
2013,09,04,00,08,0.00
2013,09,04,00,09,0.00
2013,09,04,00,10,0.00
2013,09,04,00,11,0.00
2013,09,04,00,12,0.00
2013,09,04,00,13,0.00
2013,09,04,00,14,0.00
2013,09,04,00,15,0.00
2013,09,04,00,16,0.00
2013,09,04,00,17,0.00
2013,09,04,00,18,0.00
2013,09,04,00,19,0.00
2013,09,04,00,20,0.00
2013,09,04,00,21,0.00
2013,09,04,00,22,0.00
2013,09,04,00,23,0.00
2013,09,04,00,24,0.00
2013,09,04,00,25,0.00
2013,09,04,00,26,0.00
2013,09,04,00,27,0.00
2013,09,04,00,28,0.00
2013,09,04,00,29,0.00
2013,09,04,00,30,0.00
2013,09,04,00,31,0.00
2013,09,04,00,32,0.00
2013,09,04,00,33,0.00
2013,09,04,00,34,0.00
2013,09,04,00,35,0.00
2013,09,04,00,36,0.00
2013,09,04,00,37,0.00
2013,09,04,00,38,0.00
2013,09,04,00,39,0.00
2013,09,04,00,40,0.00
2013,09,04,00,41,0.00
2013,09,04,00,42,0.00
2013,09,04,00,43,0.00
2013,09,04,00,44,0.00
2013,09,04,00,45,0.00
2013,09,04,00,46,0.00
2013,09,04,00,47,0.00
2013,09,04,00,48,0.00
2013,09,04,00,49,0.00
2013,09,04,00,50,0.00
2013,09,04,00,51,0.00
2013,09,04,00,52,0.00
2013,09,04,00,53,0.00
2013,09,04,00,54,0.00
2013,09,04,00,55,0.00
2013,09,04,00,56,0.00
2013,09,04,00,57,0.00
2013,09,04,00,58,0.00
2013,09,04,00,59,0.00
2013,09,04,01,00,0.00
2013,09,04,01,01,0.00
2013,09,04,01,02,0.00
2013,09,04,01,03,0.00
2013,09,04,01,04,0.00
2013,09,04,01,05,0.00
2013,09,04,01,06,0.00
2013,09,04,01,07,0.00
2013,09,04,01,08,0.00
2013,09,04,01,09,0.00
2013,09,04,01,10,0.00
2013,09,04,01,11,0.00
2013,09,04,01,12,0.00
2013,09,04,01,13,0.00
2013,09,04,01,14,0.00
2013,09,04,01,15,0.00
2013,09,04,01,16,0.00
2013,09,04,01,17,0.00
2013,09,04,01,18,0.00
2013,09,04,01,19,0.00
2013,09,04,01,20,0.00
2013,09,04,01,21,0.00
2013,09,04,01,22,0.00
2013,09,04,01,23,0.00
2013,09,04,01,24,0.00
2013,09,04,01,25,0.00
2013,09,04,01,26,0.00
2013,09,04,01,27,0.00
2013,09,04,01,28,0.00
2013,09,04,01,29,0.00
2013,09,04,01,30,0.00
2013,09,04,01,31,0.00
2013,09,04,01,32,0.00
2013,09,04,01,33,0.00
2013,09,04,01,34,0.00
2013,09,04,01,35,0.00
2013,09,04,01,36,0.00
2013,09,04,01,37,0.00
2013,09,04,01,38,0.00
2013,09,04,01,39,0.00
2013,09,04,01,40,0.00
2013,09,04,01,41,0.00
2013,09,04,01,42,0.00
2013,09,04,01,43,0.00
2013,09,04,01,44,0.00
2013,09,04,01,45,0.00
2013,09,04,01,46,0.00
2013,09,04,01,47,0.00
2013,09,04,01,48,0.00
2013,09,04,01,49,0.00
2013,09,04,01,50,0.00
2013,09,04,01,51,0.00
2013,09,04,01,52,0.00
2013,09,04,01,53,0.00
2013,09,04,01,54,0.00
2013,09,04,01,55,0.00
2013,09,04,01,56,0.00
2013,09,04,01,57,0.00
2013,09,04,01,58,0.00
2013,09,04,01,59,0.00
2013,09,04,02,00,0.00
2013,09,04,02,01,0.00
2013,09,04,02,02,0.00
2013,09,04,02,03,0.00
2013,09,04,02,04,0.00
2013,09,04,02,05,0.00
2013,09,04,02,06,0.00
2013,09,04,02,07,0.00
2013,09,04,02,08,0.00
2013,09,04,02,09,0.00
2013,09,04,02,10,0.00
2013,09,04,02,11,0.00
2013,09,04,02,12,0.00
2013,09,04,02,13,0.00
2013,09,04,02,14,0.00
2013,09,04,02,15,0.00
2013,09,04,02,16,0.00
2013,09,04,02,17,0.00
2013,09,04,02,18,0.00
2013,09,04,02,19,0.00
2013,09,04,02,20,0.00
2013,09,04,02,21,0.00
2013,09,04,02,22,0.00
2013,09,04,02,23,0.00
2013,09,04,02,24,0.00
2013,09,04,02,25,0.00
2013,09,04,02,26,0.00
2013,09,04,02,27,0.00
2013,09,04,02,28,0.00
2013,09,04,02,29,0.00
2013,09,04,02,30,0.00
2013,09,04,02,31,0.00
2013,09,04,02,32,0.00
2013,09,04,02,33,0.00
2013,09,04,02,34,0.00
2013,09,04,02,35,0.00
2013,09,04,02,36,0.00
2013,09,04,02,37,0.00
2013,09,04,02,38,0.00
2013,09,04,02,39,0.00
2013,09,04,02,40,0.00
2013,09,04,02,41,0.00
2013,09,04,02,42,0.00
2013,09,04,02,43,0.00
2013,09,04,02,44,0.00
2013,09,04,02,45,0.00
2013,09,04,02,46,0.00
2013,09,04,02,47,0.00
2013,09,04,02,48,0.00
2013,09,04,02,49,0.00
2013,09,04,02,50,0.00
2013,09,04,02,51,0.00
2013,09,04,02,52,0.00
2013,09,04,02,53,0.00
2013,09,04,02,54,0.00
2013,09,04,02,55,0.00
2013,09,04,02,56,0.00
2013,09,04,02,57,0.00
2013,09,04,02,58,0.00
2013,09,04,02,59,0.00
2013,09,04,03,00,0.00
2013,09,04,03,01,0.00
2013,09,04,03,02,0.00
2013,09,04,03,03,0.00
2013,09,04,03,04,0.00
2013,09,04,03,05,0.00
2013,09,04,03,06,0.00
2013,09,04,03,07,0.00
2013,09,04,03,08,0.00
2013,09,04,03,09,0.00
2013,09,04,03,10,0.00
2013,09,04,03,11,0.00
2013,09,04,03,12,0.00
2013,09,04,03,13,0.00
2013,09,04,03,14,0.00
2013,09,04,03,15,0.00
2013,09,04,03,16,0.00
2013,09,04,03,17,0.00
2013,09,04,03,18,0.00
2013,09,04,03,19,0.00
2013,09,04,03,20,0.00
2013,09,04,03,21,0.00
2013,09,04,03,22,0.00
2013,09,04,03,23,0.00
2013,09,04,03,24,0.00
2013,09,04,03,25,0.00
2013,09,04,03,26,0.00
2013,09,04,03,27,0.00
2013,09,04,03,28,0.00
2013,09,04,03,29,0.00
2013,09,04,03,30,0.00
2013,09,04,03,31,0.00
2013,09,04,03,32,0.00
2013,09,04,03,33,0.00
2013,09,04,03,34,0.00
2013,09,04,03,35,0.00
2013,09,04,03,36,0.00
2013,09,04,03,37,0.00
2013,09,04,03,38,0.00
2013,09,04,03,39,0.00
2013,09,04,03,40,0.00
2013,09,04,03,41,0.00
2013,09,04,03,42,0.00
2013,09,04,03,43,0.00
2013,09,04,03,44,0.00
2013,09,04,03,45,0.00
2013,09,04,03,46,0.00
2013,09,04,03,47,0.00
2013,09,04,03,48,0.00
2013,09,04,03,49,0.00
2013,09,04,03,50,0.00
2013,09,04,03,51,0.00
2013,09,04,03,52,0.00
2013,09,04,03,53,0.00
2013,09,04,03,54,0.00
2013,09,04,03,55,0.00
2013,09,04,03,56,0.00
2013,09,04,03,57,0.00
2013,09,04,03,58,0.00
2013,09,04,03,59,0.00
2013,09,04,04,00,0.00
2013,09,04,04,01,0.00
2013,09,04,04,02,0.00
2013,09,04,04,03,0.00
2013,09,04,04,04,0.00
2013,09,04,04,05,0.00
2013,09,04,04,06,0.00
2013,09,04,04,07,0.00
2013,09,04,04,08,0.00
2013,09,04,04,09,0.00
2013,09,04,04,10,0.00
2013,09,04,04,11,0.00
2013,09,04,04,12,0.00
2013,09,04,04,13,0.00
2013,09,04,04,14,0.00
2013,09,04,04,15,0.00
2013,09,04,04,16,0.00
2013,09,04,04,17,0.00
2013,09,04,04,18,0.00
2013,09,04,04,19,0.00
2013,09,04,04,20,0.00
2013,09,04,04,21,0.00
2013,09,04,04,22,0.00
2013,09,04,04,23,0.00
2013,09,04,04,24,0.00
2013,09,04,04,25,0.00
2013,09,04,04,26,0.00
2013,09,04,04,27,0.00
2013,09,04,04,28,0.00
2013,09,04,04,29,0.00
2013,09,04,04,30,0.00
2013,09,04,04,31,0.00
2013,09,04,04,32,0.00
2013,09,04,04,33,0.00
2013,09,04,04,34,0.00
2013,09,04,04,35,0.00
2013,09,04,04,36,0.00
2013,09,04,04,37,0.00
2013,09,04,04,38,0.00
2013,09,04,04,39,0.00
2013,09,04,04,40,0.00
2013,09,04,04,41,0.00
2013,09,04,04,42,0.00
2013,09,04,04,43,0.00
2013,09,04,04,44,0.00
2013,09,04,04,45,0.00
2013,09,04,04,46,0.00
2013,09,04,04,47,0.00
2013,09,04,04,48,0.00
2013,09,04,04,49,0.00
2013,09,04,04,50,0.00
2013,09,04,04,51,0.00
2013,09,04,04,52,0.00
2013,09,04,04,53,0.00
2013,09,04,04,54,0.00
2013,09,04,04,55,0.00
2013,09,04,04,56,0.00
2013,09,04,04,57,0.00
2013,09,04,04,58,0.00
2013,09,04,04,59,0.00
2013,09,04,05,00,0.00
2013,09,04,05,01,0.00
2013,09,04,05,02,0.00
2013,09,04,05,03,0.00
2013,09,04,05,04,0.00
2013,09,04,05,05,0.00
2013,09,04,05,06,0.00
2013,09,04,05,07,0.00
2013,09,04,05,08,0.00
2013,09,04,05,09,0.00
2013,09,04,05,10,0.00
2013,09,04,05,11,0.00
2013,09,04,05,12,0.00
2013,09,04,05,13,0.00
2013,09,04,05,14,0.00
2013,09,04,05,15,0.00
2013,09,04,05,16,0.00
2013,09,04,05,17,0.00
2013,09,04,05,18,0.00
2013,09,04,05,19,0.00
2013,09,04,05,20,0.00
2013,09,04,05,21,0.00
2013,09,04,05,22,0.00
2013,09,04,05,23,0.00
2013,09,04,05,24,0.00
2013,09,04,05,25,0.00
2013,09,04,05,26,0.00
2013,09,04,05,27,0.00
2013,09,04,05,28,0.00
2013,09,04,05,29,0.00
2013,09,04,05,30,0.00
2013,09,04,05,31,0.00
2013,09,04,05,32,0.00
2013,09,04,05,33,0.00
2013,09,04,05,34,0.00
2013,09,04,05,35,0.00
2013,09,04,05,36,0.00
2013,09,04,05,37,0.00
2013,09,04,05,38,0.00
2013,09,04,05,39,0.00
2013,09,04,05,40,0.00
2013,09,04,05,41,0.00
2013,09,04,05,42,0.00
2013,09,04,05,43,0.00
2013,09,04,05,44,0.00
2013,09,04,05,45,0.00
2013,09,04,05,46,0.00
2013,09,04,05,47,0.00
2013,09,04,05,48,0.00
2013,09,04,05,49,0.00
2013,09,04,05,50,0.00
2013,09,04,05,51,0.00
2013,09,04,05,52,0.00
2013,09,04,05,53,0.00
2013,09,04,05,54,0.00
2013,09,04,05,55,0.00
2013,09,04,05,56,0.00
2013,09,04,05,57,0.00
2013,09,04,05,58,0.00
2013,09,04,05,59,0.00
2013,09,04,06,00,0.00
2013,09,04,06,01,0.00
2013,09,04,06,02,0.00
2013,09,04,06,03,0.00
2013,09,04,06,04,0.00
2013,09,04,06,05,0.00
2013,09,04,06,06,0.00
2013,09,04,06,07,0.00
2013,09,04,06,08,0.00
2013,09,04,06,09,0.00
2013,09,04,06,10,0.00
2013,09,04,06,11,0.00
2013,09,04,06,12,0.00
2013,09,04,06,13,0.00
2013,09,04,06,14,0.00
2013,09,04,06,15,0.00
2013,09,04,06,16,0.00
2013,09,04,06,17,0.00
2013,09,04,06,18,0.00
2013,09,04,06,19,0.00
2013,09,04,06,20,0.00
2013,09,04,06,21,0.00
2013,09,04,06,22,0.00
2013,09,04,06,23,0.00
2013,09,04,06,24,0.00
2013,09,04,06,25,0.00
2013,09,04,06,26,0.00
2013,09,04,06,27,0.00
2013,09,04,06,28,0.00
2013,09,04,06,29,0.00
2013,09,04,06,30,0.00
2013,09,04,06,31,0.00
2013,09,04,06,32,0.00
2013,09,04,06,33,0.00
2013,09,04,06,34,0.00
2013,09,04,06,35,0.00
2013,09,04,06,36,0.00
2013,09,04,06,37,0.00
2013,09,04,06,38,0.00
2013,09,04,06,39,0.00
2013,09,04,06,40,3.20
2013,09,04,06,41,5.00
2013,09,04,06,42,5.00
2013,09,04,06,43,5.00
2013,09,04,06,44,6.70
2013,09,04,06,45,7.00
2013,09,04,06,46,7.10
2013,09,04,06,47,9.00
2013,09,04,06,48,9.00
2013,09,04,06,49,9.00
2013,09,04,06,50,9.60
2013,09,04,06,51,11.00
2013,09,04,06,52,11.00
2013,09,04,06,53,11.60
2013,09,04,06,54,12.00
2013,09,04,06,55,12.00
2013,09,04,06,56,13.30
2013,09,04,06,57,14.00
2013,09,04,06,58,15.60
2013,09,04,06,59,17.70
2013,09,04,07,00,18.00
2013,09,04,07,01,19.10
2013,09,04,07,02,21.30
2013,09,04,07,03,23.00
2013,09,04,07,04,23.50
2013,09,04,07,05,25.30
2013,09,04,07,06,26.80
2013,09,04,07,07,28.90
2013,09,04,07,08,31.00
2013,09,04,07,09,32.60
2013,09,04,07,10,34.20
2013,09,04,07,11,35.00
2013,09,04,07,12,35.00
2013,09,04,07,13,35.00
2013,09,04,07,14,35.00
2013,09,04,07,15,35.00
2013,09,04,07,16,35.00
2013,09,04,07,17,35.00
2013,09,04,07,18,35.40
2013,09,04,07,19,37.50
2013,09,04,07,20,39.30
2013,09,04,07,21,40.80
2013,09,04,07,22,43.70
2013,09,04,07,23,46.50
2013,09,04,07,24,49.20
2013,09,04,07,25,52.20
2013,09,04,07,26,53.70
2013,09,04,07,27,57.00
2013,09,04,07,28,59.60
2013,09,04,07,29,61.70
2013,09,04,07,30,64.70
2013,09,04,07,31,67.10
2013,09,04,07,32,69.00
2013,09,04,07,33,69.20
2013,09,04,07,34,70.50
2013,09,04,07,35,72.00
2013,09,04,07,36,72.00
2013,09,04,07,37,72.90
2013,09,04,07,38,75.00
2013,09,04,07,39,76.60
2013,09,04,07,40,78.20
2013,09,04,07,41,80.40
2013,09,04,07,42,81.00
2013,09,04,07,43,82.60
2013,09,04,07,44,83.90
2013,09,04,07,45,83.10
2013,09,04,07,46,84.20
2013,09,04,07,47,86.00
2013,09,04,07,48,85.60
2013,09,04,07,49,84.50
2013,09,04,07,50,85.30
2013,09,04,07,51,84.00
2013,09,04,07,52,84.00
2013,09,04,07,53,84.00
2013,09,04,07,54,84.00
2013,09,04,07,55,84.00
2013,09,04,07,56,84.00
2013,09,04,07,57,85.60
2013,09,04,07,58,86.00
2013,09,04,07,59,86.00
2013,09,04,08,00,86.00
2013,09,04,08,01,84.00
2013,09,04,08,02,83.90
2013,09,04,08,03,82.60
2013,09,04,08,04,80.50
2013,09,04,08,05,79.00
2013,09,04,08,06,79.00
2013,09,04,08,07,79.80
2013,09,04,08,08,82.00
2013,09,04,08,09,83.60
2013,09,04,08,10,86.50
2013,09,04,08,11,89.40
2013,09,04,08,12,92.30
2013,09,04,08,13,94.60
2013,09,04,08,14,96.80
2013,09,04,08,15,97.90
2013,09,04,08,16,100.10
2013,09,04,08,17,102.30
2013,09,04,08,18,104.00
2013,09,04,08,19,104.20
2013,09,04,08,20,105.70
2013,09,04,08,21,107.80
2013,09,04,08,22,109.80
2013,09,04,08,23,112.40
2013,09,04,08,24,114.00
2013,09,04,08,25,115.20
2013,09,04,08,26,116.00
2013,09,04,08,27,116.00
2013,09,04,08,28,114.40
2013,09,04,08,29,114.00
2013,09,04,08,30,113.00
2013,09,04,08,31,110.90
2013,09,04,08,32,109.00
2013,09,04,08,33,108.60
2013,09,04,08,34,106.50
2013,09,04,08,35,104.70
2013,09,04,08,36,102.60
2013,09,04,08,37,100.00
2013,09,04,08,38,99.00
2013,09,04,08,39,98.00
2013,09,04,08,40,99.30
2013,09,04,08,41,100.00
2013,09,04,08,42,100.00
2013,09,04,08,43,101.60
2013,09,04,08,44,102.00
2013,09,04,08,45,103.90
2013,09,04,08,46,104.00
2013,09,04,08,47,104.00
2013,09,04,08,48,104.00
2013,09,04,08,49,103.50
2013,09,04,08,50,102.00
2013,09,04,08,51,102.00
2013,09,04,08,52,102.00
2013,09,04,08,53,103.00
2013,09,04,08,54,104.00
2013,09,04,08,55,104.00
2013,09,04,08,56,102.70
2013,09,04,08,57,102.00
2013,09,04,08,58,98.80
2013,09,04,08,59,97.10
2013,09,04,09,00,93.20
2013,09,04,09,01,90.90
2013,09,04,09,02,89.70
2013,09,04,09,03,87.60
2013,09,04,09,04,85.20
2013,09,04,09,05,82.30
2013,09,04,09,06,79.40
2013,09,04,09,07,76.60
2013,09,04,09,08,73.90
2013,09,04,09,09,70.90
2013,09,04,09,10,69.40
2013,09,04,09,11,64.80
2013,09,04,09,12,60.70
2013,09,04,09,13,58.40
2013,09,04,09,14,56.30
2013,09,04,09,15,56.00
2013,09,04,09,16,56.20
2013,09,04,09,17,60.40
2013,09,04,09,18,63.80
2013,09,04,09,19,67.50
2013,09,04,09,20,70.00
2013,09,04,09,21,72.80
2013,09,04,09,22,74.90
2013,09,04,09,23,76.40
2013,09,04,09,24,77.00
2013,09,04,09,25,77.00
2013,09,04,09,26,77.00
2013,09,04,09,27,77.00
2013,09,04,09,28,77.00
2013,09,04,09,29,77.00
2013,09,04,09,30,77.00
2013,09,04,09,31,77.00
2013,09,04,09,32,77.00
2013,09,04,09,33,77.00
2013,09,04,09,34,77.50
2013,09,04,09,35,79.60
2013,09,04,09,36,82.20
2013,09,04,09,37,85.80
2013,09,04,09,38,91.70
2013,09,04,09,39,100.70
2013,09,04,09,40,111.60
2013,09,04,09,41,124.00
2013,09,04,09,42,136.20
2013,09,04,09,43,143.00
2013,09,04,09,44,147.40
2013,09,04,09,45,146.10
2013,09,04,09,46,146.10
2013,09,04,09,47,148.10
2013,09,04,09,48,149.60
2013,09,04,09,49,153.70
2013,09,04,09,50,156.60
2013,09,04,09,51,158.00
2013,09,04,09,52,158.00
2013,09,04,09,53,159.00
2013,09,04,09,54,161.60
2013,09,04,09,55,166.60
2013,09,04,09,56,169.00
2013,09,04,09,57,170.50
2013,09,04,09,58,169.40
2013,09,04,09,59,167.20
2013,09,04,10,00,163.20
2013,09,04,10,01,161.60
2013,09,04,10,02,157.60
2013,09,04,10,03,155.00
2013,09,04,10,04,155.00
2013,09,04,10,05,155.30
2013,09,04,10,06,157.50
2013,09,04,10,07,162.10
2013,09,04,10,08,167.90
2013,09,04,10,09,174.90
2013,09,04,10,10,178.60
2013,09,04,10,11,178.30
2013,09,04,10,12,175.00
2013,09,04,10,13,170.00
2013,09,04,10,14,163.00
2013,09,04,10,15,153.40
2013,09,04,10,16,143.30
2013,09,04,10,17,136.20
2013,09,04,10,18,131.20
2013,09,04,10,19,127.20
2013,09,04,10,20,124.40
2013,09,04,10,21,123.00
2013,09,04,10,22,123.80
2013,09,04,10,23,125.90
2013,09,04,10,24,128.70
2013,09,04,10,25,133.10
2013,09,04,10,26,137.80
2013,09,04,10,27,141.30
2013,09,04,10,28,145.40
2013,09,04,10,29,147.70
2013,09,04,10,30,148.90
2013,09,04,10,31,149.00
2013,09,04,10,32,148.00
2013,09,04,10,33,148.00
2013,09,04,10,34,148.20
2013,09,04,10,35,149.00
2013,09,04,10,36,149.00
2013,09,04,10,37,147.70
2013,09,04,10,38,140.20
2013,09,04,10,39,132.10
2013,09,04,10,40,128.20
2013,09,04,10,41,115.00
2013,09,04,10,42,105.00
2013,09,04,10,43,98.30
2013,09,04,10,44,99.70
2013,09,04,10,45,110.50
2013,09,04,10,46,135.60
2013,09,04,10,47,148.00
2013,09,04,10,48,149.00
2013,09,04,10,49,155.20
2013,09,04,10,50,162.00
2013,09,04,10,51,163.90
2013,09,04,10,52,170.00
2013,09,04,10,53,176.60
2013,09,04,10,54,181.40
2013,09,04,10,55,184.20
2013,09,04,10,56,192.80
2013,09,04,10,57,198.50
2013,09,04,10,58,199.80
2013,09,04,10,59,201.80
2013,09,04,11,00,205.80
2013,09,04,11,01,209.20
2013,09,04,11,02,213.40
2013,09,04,11,03,216.80
2013,09,04,11,04,220.20
2013,09,04,11,05,221.00
2013,09,04,11,06,221.00
2013,09,04,11,07,221.00
2013,09,04,11,08,221.00
2013,09,04,11,09,222.10
2013,09,04,11,10,223.00
2013,09,04,11,11,227.60
2013,09,04,11,12,239.80
2013,09,04,11,13,271.00
2013,09,04,11,14,320.00
2013,09,04,11,15,371.60
2013,09,04,11,16,414.60
2013,09,04,11,17,497.00
2013,09,04,11,18,412.30
2013,09,04,11,19,418.00
2013,09,04,11,20,479.10
2013,09,04,11,21,625.60
2013,09,04,11,22,649.00
2013,09,04,11,23,649.00
2013,09,04,11,24,470.10
2013,09,04,11,25,321.80
2013,09,04,11,26,313.00
2013,09,04,11,27,371.70
2013,09,04,11,28,321.20
2013,09,04,11,29,307.40
2013,09,04,11,30,306.10
2013,09,04,11,31,290.20
2013,09,04,11,32,298.00
2013,09,04,11,33,329.80
2013,09,04,11,34,423.00
2013,09,04,11,35,442.70
2013,09,04,11,36,403.40
2013,09,04,11,37,416.00
2013,09,04,11,38,393.30
2013,09,04,11,39,369.00
2013,09,04,11,40,362.40
2013,09,04,11,41,364.00
2013,09,04,11,42,364.00
2013,09,04,11,43,364.00
2013,09,04,11,44,767.70
2013,09,04,11,45,835.00
2013,09,04,11,46,816.40
2013,09,04,11,47,445.00
2013,09,04,11,48,474.80
2013,09,04,11,49,594.00
2013,09,04,11,50,519.30
2013,09,04,11,51,335.80
2013,09,04,11,52,318.00
2013,09,04,11,53,311.00
2013,09,04,11,54,311.30
2013,09,04,11,55,332.80
2013,09,04,11,56,346.00
2013,09,04,11,57,342.20
2013,09,04,11,58,351.20
2013,09,04,11,59,378.70
2013,09,04,12,00,383.00
2013,09,04,12,01,382.90
2013,09,04,12,02,388.20
2013,09,04,12,03,445.60
2013,09,04,12,04,369.00
2013,09,04,12,05,336.60
2013,09,04,12,06,329.60
2013,09,04,12,07,312.40
2013,09,04,12,08,302.80
2013,09,04,12,09,288.60
2013,09,04,12,10,276.40
2013,09,04,12,11,266.70
2013,09,04,12,12,255.80
2013,09,04,12,13,245.70
2013,09,04,12,14,236.80
2013,09,04,12,15,229.40
2013,09,04,12,16,224.60
2013,09,04,12,17,220.60
2013,09,04,12,18,217.00
2013,09,04,12,19,211.50
2013,09,04,12,20,205.50
2013,09,04,12,21,201.20
2013,09,04,12,22,200.90
2013,09,04,12,23,205.30
2013,09,04,12,24,213.90
2013,09,04,12,25,223.40
2013,09,04,12,26,230.30
2013,09,04,12,27,233.50
2013,09,04,12,28,235.60
2013,09,04,12,29,236.90
2013,09,04,12,30,238.80
2013,09,04,12,31,241.10
2013,09,04,12,32,244.90
2013,09,04,12,33,250.80
2013,09,04,12,34,257.50
2013,09,04,12,35,269.20
2013,09,04,12,36,284.20
2013,09,04,12,37,296.00
2013,09,04,12,38,303.00
2013,09,04,12,39,302.90
2013,09,04,12,40,303.30
2013,09,04,12,41,308.80
2013,09,04,12,42,320.50
2013,09,04,12,43,374.80
2013,09,04,12,44,387.00
2013,09,04,12,45,387.00
2013,09,04,12,46,1044.00
2013,09,04,12,47,1036.50
2013,09,04,12,48,960.60
2013,09,04,12,49,917.00
2013,09,04,12,50,884.70
2013,09,04,12,51,863.80
2013,09,04,12,52,862.00
2013,09,04,12,53,881.50
2013,09,04,12,54,893.00
2013,09,04,12,55,893.00
2013,09,04,12,56,893.00
2013,09,04,12,57,893.00
2013,09,04,12,58,479.40
2013,09,04,12,59,415.40
2013,09,04,13,00,384.00
2013,09,04,13,01,436.60
2013,09,04,13,02,367.90
2013,09,04,13,03,322.00
2013,09,04,13,04,413.20
2013,09,04,13,05,705.00
2013,09,04,13,06,764.20
2013,09,04,13,07,841.40
2013,09,04,13,08,815.90
2013,09,04,13,09,800.10
2013,09,04,13,10,789.40
2013,09,04,13,11,784.60
2013,09,04,13,12,775.80
2013,09,04,13,13,774.60
2013,09,04,13,14,776.70
2013,09,04,13,15,779.70
2013,09,04,13,16,738.10
2013,09,04,13,17,740.00
2013,09,04,13,18,740.00
2013,09,04,13,19,740.00
2013,09,04,13,20,740.00
2013,09,04,13,21,765.80
2013,09,04,13,22,809.60
2013,09,04,13,23,802.20
2013,09,04,13,24,775.70
2013,09,04,13,25,701.50
2013,09,04,13,26,668.00
2013,09,04,13,27,756.50
2013,09,04,13,28,787.60
2013,09,04,13,29,788.90
2013,09,04,13,30,792.80
2013,09,04,13,31,810.60
2013,09,04,13,32,825.80
2013,09,04,13,33,848.80
2013,09,04,13,34,840.00
2013,09,04,13,35,840.00
2013,09,04,13,36,842.80
2013,09,04,13,37,847.00
2013,09,04,13,38,797.00
2013,09,04,13,39,747.00
2013,09,04,13,40,669.00
2013,09,04,13,41,643.70
2013,09,04,13,42,657.00
2013,09,04,13,43,521.00
2013,09,04,13,44,489.00
2013,09,04,13,45,489.00
2013,09,04,13,46,489.00
2013,09,04,13,47,489.00
2013,09,04,13,48,472.00
2013,09,04,13,49,404.00
2013,09,04,13,50,404.00
2013,09,04,13,51,378.90
2013,09,04,13,52,323.40
2013,09,04,13,53,302.60
2013,09,04,13,54,301.50
2013,09,04,13,55,305.60
2013,09,04,13,56,312.80
2013,09,04,13,57,324.10
2013,09,04,13,58,338.50
2013,09,04,13,59,357.20
2013,09,04,14,00,370.40
2013,09,04,14,01,383.00
2013,09,04,14,02,383.00
2013,09,04,14,03,395.40
2013,09,04,14,04,433.00
2013,09,04,14,05,385.70
2013,09,04,14,06,387.00
2013,09,04,14,07,400.30
2013,09,04,14,08,398.00
2013,09,04,14,09,379.50
2013,09,04,14,10,372.20
2013,09,04,14,11,390.30
2013,09,04,14,12,452.30
2013,09,04,14,13,415.60
2013,09,04,14,14,403.00
2013,09,04,14,15,403.00
2013,09,04,14,16,436.90
2013,09,04,14,17,357.90
2013,09,04,14,18,344.00
2013,09,04,14,19,341.20
2013,09,04,14,20,371.10
2013,09,04,14,21,410.10
2013,09,04,14,22,393.90
2013,09,04,14,23,351.00
2013,09,04,14,24,334.10
2013,09,04,14,25,322.40
2013,09,04,14,26,311.00
2013,09,04,14,27,298.10
2013,09,04,14,28,288.60
2013,09,04,14,29,285.20
2013,09,04,14,30,283.10
2013,09,04,14,31,285.10
2013,09,04,14,32,288.90
2013,09,04,14,33,294.60
2013,09,04,14,34,297.50
2013,09,04,14,35,299.70
2013,09,04,14,36,299.40
2013,09,04,14,37,294.50
2013,09,04,14,38,288.10
2013,09,04,14,39,281.00
2013,09,04,14,40,272.10
2013,09,04,14,41,261.30
2013,09,04,14,42,252.70
2013,09,04,14,43,250.20
2013,09,04,14,44,250.00
2013,09,04,14,45,244.30
2013,09,04,14,46,235.40
2013,09,04,14,47,221.40
2013,09,04,14,48,209.20
2013,09,04,14,49,200.20
2013,09,04,14,50,194.10
2013,09,04,14,51,191.30
2013,09,04,14,52,190.90
2013,09,04,14,53,193.50
2013,09,04,14,54,197.80
2013,09,04,14,55,203.60
2013,09,04,14,56,208.10
2013,09,04,14,57,210.50
2013,09,04,14,58,209.40
2013,09,04,14,59,206.40
2013,09,04,15,00,199.40
2013,09,04,15,01,191.60
2013,09,04,15,02,184.10
2013,09,04,15,03,178.80
2013,09,04,15,04,178.20
2013,09,04,15,05,179.60
2013,09,04,15,06,182.50
2013,09,04,15,07,186.30
2013,09,04,15,08,189.90
2013,09,04,15,09,192.60
2013,09,04,15,10,194.20
2013,09,04,15,11,195.00
2013,09,04,15,12,196.50
2013,09,04,15,13,197.00
2013,09,04,15,14,197.00
2013,09,04,15,15,198.90
2013,09,04,15,16,199.00
2013,09,04,15,17,199.00
2013,09,04,15,18,199.00
2013,09,04,15,19,199.00
2013,09,04,15,20,199.30
2013,09,04,15,21,200.70
2013,09,04,15,22,203.80
2013,09,04,15,23,207.60
2013,09,04,15,24,211.20
2013,09,04,15,25,213.00
2013,09,04,15,26,210.20
2013,09,04,15,27,205.20
2013,09,04,15,28,200.00
2013,09,04,15,29,193.10
2013,09,04,15,30,186.60
2013,09,04,15,31,177.60
2013,09,04,15,32,167.80
2013,09,04,15,33,157.80
2013,09,04,15,34,147.10
2013,09,04,15,35,138.40
2013,09,04,15,36,128.40
2013,09,04,15,37,119.10
2013,09,04,15,38,110.70
2013,09,04,15,39,103.20
2013,09,04,15,40,97.00
2013,09,04,15,41,92.20
2013,09,04,15,42,88.60
2013,09,04,15,43,84.80
2013,09,04,15,44,83.20
2013,09,04,15,45,83.00
2013,09,04,15,46,83.00
2013,09,04,15,47,83.00
2013,09,04,15,48,83.60
2013,09,04,15,49,86.50
2013,09,04,15,50,88.60
2013,09,04,15,51,90.00
2013,09,04,15,52,90.00
2013,09,04,15,53,90.00
2013,09,04,15,54,88.90
2013,09,04,15,55,86.80
2013,09,04,15,56,84.70
2013,09,04,15,57,83.20
2013,09,04,15,58,83.00
2013,09,04,15,59,83.80
2013,09,04,16,00,87.80
2013,09,04,16,01,89.40
2013,09,04,16,02,103.30
2013,09,04,16,03,112.00
2013,09,04,16,04,117.00
2013,09,04,16,05,119.40
2013,09,04,16,06,117.20
2013,09,04,16,07,115.10
2013,09,04,16,08,114.00
2013,09,04,16,09,115.10
2013,09,04,16,10,117.20
2013,09,04,16,11,119.30
2013,09,04,16,12,120.80
2013,09,04,16,13,124.20
2013,09,04,16,14,126.80
2013,09,04,16,15,129.70
2013,09,04,16,16,134.10
2013,09,04,16,17,134.90
2013,09,04,16,18,133.20
2013,09,04,16,19,128.60
2013,09,04,16,20,123.30
2013,09,04,16,21,118.50
2013,09,04,16,22,115.20
2013,09,04,16,23,112.60
2013,09,04,16,24,108.70
2013,09,04,16,25,103.80
2013,09,04,16,26,98.70
2013,09,04,16,27,91.80
2013,09,04,16,28,85.20
2013,09,04,16,29,79.70
2013,09,04,16,30,76.20
2013,09,04,16,31,73.80
2013,09,04,16,32,72.00
2013,09,04,16,33,72.00
2013,09,04,16,34,72.00
2013,09,04,16,35,72.60
2013,09,04,16,36,75.10
2013,09,04,16,37,77.90
2013,09,04,16,38,79.00
2013,09,04,16,39,77.90
2013,09,04,16,40,76.40
2013,09,04,16,41,76.00
2013,09,04,16,42,74.50
2013,09,04,16,43,72.40
2013,09,04,16,44,70.20
2013,09,04,16,45,65.50
2013,09,04,16,46,61.80
2013,09,04,16,47,57.70
2013,09,04,16,48,56.00
2013,09,04,16,49,56.00
2013,09,04,16,50,56.00
2013,09,04,16,51,57.60
2013,09,04,16,52,63.00
2013,09,04,16,53,70.50
2013,09,04,16,54,77.80
2013,09,04,16,55,85.20
2013,09,04,16,56,92.90
2013,09,04,16,57,97.20
2013,09,04,16,58,99.60
2013,09,04,16,59,98.30
2013,09,04,17,00,96.80
2013,09,04,17,01,92.80
2013,09,04,17,02,89.40
2013,09,04,17,03,85.00
2013,09,04,17,04,79.80
2013,09,04,17,05,74.80
2013,09,04,17,06,70.90
2013,09,04,17,07,69.00
2013,09,04,17,08,69.00
2013,09,04,17,09,69.00
2013,09,04,17,10,69.60
2013,09,04,17,11,70.00
2013,09,04,17,12,70.00
2013,09,04,17,13,71.60
2013,09,04,17,14,73.70
2013,09,04,17,15,76.90
2013,09,04,17,16,81.30
2013,09,04,17,17,84.30
2013,09,04,17,18,86.40